Location: Laguna de la Cañada del Gallo
(40.3974°N, 5.2096°W)
Time: 05:03:05
(UTC+00:00)

IRS-P2 Rocket - Visible Passes

Search period start: 18 July 2024 00:00
Search period end: 28 July 2024 00:00
Orbit: 793 x 877 km, 98.9° (Epoch: 17 July)

Date Brightness Start Highest point End Pass type
(mag) Time Alt. Az. Time Alt. Az. Time Alt. Az.
18 Jul 4.6 21:33:45 24° SSE 21:37:08 89° ENE 21:42:26 10° NNW visible
18 Jul 7.2 23:17:11 10° W 23:18:06 10° W 23:19:03 10° W visible
19 Jul 4.7 21:17:10 21° SSE 21:20:43 63° ENE 21:25:57 10° N visible
19 Jul 6.9 22:58:50 11° WSW 23:01:28 16° W 23:04:36 10° NW visible
20 Jul 5.1 21:00:34 17° SE 21:04:21 45° ENE 21:09:22 10° N visible
20 Jul 6.5 22:42:16 16° SW 22:44:53 22° W 22:48:58 10° NW visible
21 Jul 5.6 20:44:00 13° SE 20:48:02 32° ENE 20:52:40 10° N visible
21 Jul 6.0 22:25:40 20° SW 22:28:20 31° W 22:33:01 10° NW visible
22 Jul 6.0 20:27:38 10° ESE 20:31:45 23° ENE 20:35:50 10° NNE visible
22 Jul 5.4 22:09:05 25° SSW 22:11:50 44° W 22:16:51 10° NNW visible
23 Jul 6.3 20:12:11 10° E 20:15:30 17° ENE 20:18:48 10° NNE visible
23 Jul 4.9 21:52:30 27° S 21:55:21 64° WSW 22:00:34 10° NNW visible
24 Jul 4.6 21:35:56 27° SSE 21:38:54 89° W 21:44:10 10° NNW visible
25 Jul 4.7 21:19:21 24° SSE 21:22:30 65° ENE 21:27:41 10° N visible
25 Jul 6.9 23:01:01 12° WSW 23:03:16 15° W 23:06:12 10° WNW visible
26 Jul 5.0 21:02:46 20° SE 21:06:07 46° ENE 21:11:06 10° N visible
26 Jul 6.5 22:44:27 17° SW 22:46:41 21° W 22:50:38 10° NW visible
27 Jul 5.5 20:46:12 15° ESE 20:49:47 33° ENE 20:54:25 10° N visible
27 Jul 6.0 22:27:52 22° SW 22:30:07 30° W 22:34:42 10° NW visible
